Thermopolis, WY

11:43 PM MDT on July 23, 2017 (GMT -0600)
Thermopolis

Weather History for KTBX - December, 2012

Change the Weather History Date:

Monday, December 31, 2012

  Actual Average (KWRL) Record (KWRL)
Temperature  
Mean Temperature 14 °F -  
Max Temperature 19 °F 24 °F 50 °F (1996)
Min Temperature 10 °F 0 °F -45 °F (1978)
Degree Days  
Heating Degree Days 50    
Moisture  
Dew Point 4 °F    
Average Humidity 67    
Maximum Humidity 85    
Minimum Humidity 49    
Precipitation  
Precipitation 0.00 in - - ()
Sea Level Pressure  
Sea Level Pressure 29.95 in    
Wind  
Wind Speed 8 mph (South)    
Max Wind Speed 16 mph    
Max Gust Speed -    
Visibility 10 miles    
Events      
Averages and records for this station are not official NWS values.
T = Trace of Precipitation, MM = Missing Value Source: NWS Daily Summary

Daily Weather History Graph

Daily Weather History Graph

Search for Another Location

Airport or City:

Trip Planner

Search our weather history database for the weather conditions in past years. The results will help you decide how hot, cold, wet, or windy it might be!

Date:

Astronomy

Dec. 31, 2012 Rise Set
Actual Time 7:45 AM MST 4:46 PM MST
Civil Twilight 7:13 AM MST 5:19 PM MST
Nautical Twilight 6:37 AM MST 5:55 PM MST
Astronomical Twilight 6:02 AM MST 6:30 PM MST
Moon 8:27 PM MST (12/31) 9:23 AM MST (12/31)
Length of Visible Light 10h 06m
Length of Day
9h 01m
Waning Gibbous, 90% of the Moon is Illuminated
Dec 31
Waning Gibbous
Jan 4
Last Quarter
Jan 11
New
Jan 18
First Quarter
Jan 26
Full

Hourly Weather History & Observations

Time (MST) Temp. Windchill Dew Point Humidity Pressure Visibility Wind Dir Wind Speed Gust Speed Precip Events Conditions
12:15 AM 10.4 °F -3.3 °F 1.4 °F 67% 29.95 in 10.0 mi SE 10.4 mph - N/A   Clear
12:55 AM 10.4 °F -5.4 °F 1.4 °F 67% 29.94 in 10.0 mi ESE 13.8 mph - N/A   Clear
1:15 AM 10.4 °F -3.3 °F 1.4 °F 67% 29.94 in 10.0 mi ESE 10.4 mph - N/A   Clear
1:35 AM 10.4 °F -3.3 °F 3.2 °F 73% 29.94 in 10.0 mi ESE 10.4 mph - N/A   Clear
1:55 AM 10.4 °F -4.1 °F 3.2 °F 73% 29.94 in 10.0 mi ESE 11.5 mph - N/A   Clear
2:15 AM 10.4 °F -4.1 °F 3.2 °F 73% 29.94 in 10.0 mi ESE 11.5 mph - N/A   Clear
2:35 AM 10.4 °F -5.4 °F 5.0 °F 79% 29.94 in 10.0 mi ESE 13.8 mph - N/A   Clear
2:55 AM 10.4 °F -4.1 °F 5.0 °F 79% 29.94 in 10.0 mi SE 11.5 mph - N/A   Clear
3:15 AM 10.4 °F -4.1 °F 5.0 °F 79% 29.94 in 10.0 mi ESE 11.5 mph - N/A   Clear
3:35 AM 10.4 °F -3.3 °F 6.8 °F 85% 29.94 in 10.0 mi SE 10.4 mph - N/A   Clear
3:55 AM 10.4 °F -3.3 °F 5.0 °F 79% 29.93 in 10.0 mi ESE 10.4 mph - N/A   Clear
4:15 AM 10.4 °F -3.3 °F 6.8 °F 85% 29.93 in 10.0 mi ESE 10.4 mph - N/A   Clear
4:35 AM 10.4 °F -3.3 °F 6.8 °F 85% 29.92 in 10.0 mi SE 10.4 mph - N/A   Clear
4:55 AM 10.4 °F -2.4 °F 6.8 °F 85% 29.92 in 10.0 mi SE 9.2 mph - N/A   Clear
5:15 AM 10.4 °F -0.4 °F 6.8 °F 85% 29.92 in 10.0 mi SE 6.9 mph - N/A   Clear
5:35 AM 10.4 °F -2.4 °F 6.8 °F 85% 29.92 in 10.0 mi ESE 9.2 mph - N/A   Clear
6:15 AM 12.2 °F 4.3 °F 5.0 °F 73% 29.92 in 10.0 mi SE 4.6 mph - N/A   Clear
6:35 AM 12.2 °F 4.3 °F 5.0 °F 73% 29.93 in 10.0 mi SE 4.6 mph - N/A   Clear
7:15 AM 14.0 °F 8.2 °F 3.2 °F 62% 29.93 in 10.0 mi SE 3.5 mph - N/A   Clear
7:35 AM 14.0 °F - 3.2 °F 62% 29.93 in 10.0 mi Calm Calm - N/A   Clear
7:55 AM 14.0 °F - 3.2 °F 62% 29.95 in 10.0 mi Calm Calm - N/A   Clear
8:15 AM 14.0 °F - 3.2 °F 62% 29.94 in 10.0 mi Calm Calm - N/A   Clear
8:35 AM 15.8 °F - 3.2 °F 58% 29.95 in 10.0 mi Calm Calm - N/A   Clear
9:15 AM 14.0 °F 5.1 °F 5.0 °F 67% 29.96 in 10.0 mi NNW 5.8 mph - N/A   Clear
9:35 AM 14.0 °F - 3.2 °F 62% 29.97 in 10.0 mi Calm Calm - N/A   Clear
9:55 AM 14.0 °F 5.1 °F 3.2 °F 62% 29.97 in 10.0 mi NW 5.8 mph - N/A   Clear
10:15 AM 14.0 °F 6.5 °F 3.2 °F 62% 29.98 in 10.0 mi NW 4.6 mph - N/A   Clear
10:55 AM 14.0 °F 8.2 °F 3.2 °F 62% 29.98 in 10.0 mi NW 3.5 mph - N/A   Clear
11:15 AM 15.8 °F - 3.2 °F 58% 29.97 in 10.0 mi Calm Calm - N/A   Clear
11:35 AM 15.8 °F 10.2 °F 3.2 °F 58% 29.97 in 10.0 mi WNW 3.5 mph - N/A   Clear
11:55 AM 17.6 °F - 6.8 °F 63% 29.96 in 10.0 mi Calm Calm - N/A   Clear
12:35 PM 17.6 °F 12.3 °F 8.6 °F 68% 29.93 in 10.0 mi SSE 3.5 mph - N/A   Clear
12:55 PM 14.0 °F 5.1 °F 8.6 °F 79% 29.92 in 10.0 mi SSE 5.8 mph - N/A   Clear
1:15 PM 15.8 °F 7.2 °F 6.8 °F 68% 29.92 in 10.0 mi South 5.8 mph - N/A   Clear
1:35 PM 15.8 °F 6.1 °F 5.0 °F 62% 29.91 in 10.0 mi SSE 6.9 mph - N/A   Clear
1:55 PM 15.8 °F 6.1 °F 5.0 °F 62% 29.91 in 10.0 mi SSE 6.9 mph - N/A   Clear
2:15 PM 17.6 °F 9.3 °F 5.0 °F 58% 29.91 in 10.0 mi South 5.8 mph - N/A   Clear
2:35 PM 17.6 °F 10.7 °F 5.0 °F 58% 29.92 in 10.0 mi SSE 4.6 mph - N/A   Clear
2:55 PM 17.6 °F - 3.2 °F 53% 29.92 in 10.0 mi Calm Calm - N/A   Clear
3:15 PM 19.4 °F - 3.2 °F 49% 29.93 in 10.0 mi Calm Calm - N/A   Clear
3:35 PM 17.6 °F 12.3 °F 5.0 °F 58% 29.93 in 10.0 mi SE 3.5 mph - N/A   Clear
3:55 PM 17.6 °F - 3.2 °F 53% 29.94 in 10.0 mi Calm Calm - N/A   Clear
4:15 PM 14.0 °F 3.9 °F 3.2 °F 62% 29.94 in 10.0 mi WNW 6.9 mph - N/A   Clear
4:35 PM 14.0 °F - 5.0 °F 67% 29.95 in 10.0 mi Calm Calm - N/A   Clear
4:55 PM 15.8 °F - 3.2 °F 58% 29.95 in 10.0 mi Calm Calm - N/A   Clear
5:15 PM 15.8 °F 7.2 °F 3.2 °F 58% 29.95 in 10.0 mi SE 5.8 mph - N/A   Clear
5:55 PM 15.8 °F - 3.2 °F 58% 29.95 in 10.0 mi Calm Calm - N/A   Clear
6:15 PM 14.0 °F 5.1 °F 3.2 °F 62% 29.96 in 10.0 mi WNW 5.8 mph - N/A   Clear
6:35 PM 14.0 °F - 5.0 °F 67% 29.96 in 10.0 mi Calm Calm - N/A   Clear
6:55 PM 15.8 °F 10.2 °F 3.2 °F 58% 29.96 in 10.0 mi South 3.5 mph - N/A   Scattered Clouds
7:15 PM 14.0 °F 6.5 °F 3.2 °F 62% 29.97 in 10.0 mi West 4.6 mph - N/A   Scattered Clouds
7:35 PM 14.0 °F 5.1 °F 3.2 °F 62% 29.96 in 10.0 mi SSW 5.8 mph - N/A   Scattered Clouds
7:55 PM 15.8 °F 8.6 °F 3.2 °F 58% 29.96 in 10.0 mi SW 4.6 mph - N/A   Scattered Clouds
8:15 PM 14.0 °F 2.0 °F 3.2 °F 62% 29.97 in 10.0 mi West 9.2 mph - N/A   Scattered Clouds
8:35 PM 12.2 °F -3.1 °F 5.0 °F 73% 29.97 in 10.0 mi NW 13.8 mph - N/A   Clear
8:55 PM 12.2 °F -4.3 °F 3.2 °F 67% 29.97 in 10.0 mi NW 16.1 mph - N/A   Clear
9:15 PM 12.2 °F -4.3 °F 3.2 °F 67% 29.97 in 10.0 mi NW 16.1 mph - N/A   Mostly Cloudy
9:35 PM 12.2 °F -3.1 °F 5.0 °F 73% 29.98 in 10.0 mi NW 13.8 mph - N/A   Overcast
9:55 PM 14.0 °F 0.5 °F 5.0 °F 67% 29.98 in 10.0 mi West 11.5 mph - N/A   Overcast
10:15 PM 14.0 °F -0.2 °F 5.0 °F 67% 29.99 in 10.0 mi WNW 12.7 mph - N/A   Overcast
10:35 PM 14.0 °F -0.2 °F 5.0 °F 67% 30.00 in 10.0 mi WNW 12.7 mph - N/A   Overcast
10:55 PM 14.0 °F -0.2 °F 5.0 °F 67% 30.00 in 10.0 mi WNW 12.7 mph - N/A   Overcast
11:15 PM 14.0 °F 0.5 °F 5.0 °F 67% 30.02 in 10.0 mi NW 11.5 mph - N/A   Overcast
11:35 PM 14.0 °F -0.2 °F 5.0 °F 67% 30.02 in 10.0 mi WNW 12.7 mph - N/A   Overcast
11:55 PM 14.0 °F -0.2 °F 5.0 °F 67% 30.02 in 10.0 mi WNW 12.7 mph - N/A   Overcast